• In Kazakhstan
  • List of Countries
  • For 7 days
  • Water Temperature
  • Weather Map
  • News
  • Weather Widgets
  • user-avatar
    Login

    Hourly Weather Tuzla

    Today, 5 December, Thursday

    Time Temperature Precipitation Wind Pressure Humidity
    00:00 -2°C° 0 mm 1 mps 728 mmHg 88%
    01:00 -3°C° 0 mm 1 mps 728 mmHg 88%
    02:00 -3°C° 0 mm 1 mps 728 mmHg 87%
    03:00 -3°C° 0 mm 1 mps 727 mmHg 86%
    04:00 -3°C° 0 mm 1 mps 727 mmHg 85%
    05:00 -3°C° 0 mm 1 mps 727 mmHg 83%
    06:00 -3°C° 0 mm 1 mps 727 mmHg 81%
    07:00 -3°C° 0 mm 1 mps 728 mmHg 80%
    08:00 -1°C° 0 mm 1 mps 728 mmHg 74%
    09:00 0°C° 0 mm 0 mps 728 mmHg 69%
    10:00 +2°C° 0 mm 0 mps 728 mmHg 64%
    11:00 +3°C° 0 mm 0 mps 728 mmHg 62%
    12:00 +4°C° 0 mm 0 mps 728 mmHg 61%
    13:00 +5°C° 0 mm 1 mps 728 mmHg 60%
    14:00 +3°C° 0 mm 0 mps 728 mmHg 65%
    15:00 +2°C° 0 mm 0 mps 727 mmHg 70%
    16:00 0°C° 0 mm 0 mps 727 mmHg 74%
    17:00 0°C° 0 mm 0 mps 727 mmHg 75%
    18:00 0°C° 0 mm 0 mps 727 mmHg 77%
    19:00 0°C° 0 mm 1 mps 728 mmHg 78%
    20:00 +1°C° 0 mm 1 mps 728 mmHg 79%
    21:00 +1°C° 0 mm 1 mps 727 mmHg 79%
    22:00 +1°C° 0 mm 1 mps 727 mmHg 80%
    23:00 +1°C° 0 mm 1 mps 727 mmHg 81%

    Tomorrow, 6 December, Friday

    Time Temperature Precipitation Wind Pressure Humidity
    00:00 +1°C° 0 mm 1 mps 727 mmHg 82%
    01:00 +1°C° 0 mm 1 mps 728 mmHg 82%
    02:00 +1°C° 0 mm 1 mps 727 mmHg 84%
    03:00 +1°C° 0 mm 1 mps 727 mmHg 85%
    04:00 +1°C° 0 mm 1 mps 726 mmHg 86%
    05:00 +2°C° 0 mm 1 mps 726 mmHg 88%
    06:00 +2°C° 0 mm 1 mps 727 mmHg 89%
    07:00 +2°C° 0 mm 1 mps 727 mmHg 90%
    08:00 +4°C° 0 mm 1 mps 727 mmHg 88%
    09:00 +6°C° 0 mm 1 mps 727 mmHg 86%
    10:00 +7°C° 0 mm 1 mps 727 mmHg 84%
    11:00 +8°C° 0 mm 1 mps 726 mmHg 83%
    12:00 +9°C° 0 mm 1 mps 726 mmHg 82%
    13:00 +10°C° 0 mm 1 mps 726 mmHg 82%
    14:00 +9°C° 0 mm 1 mps 725 mmHg 85%
    15:00 +8°C° 0 mm 1 mps 725 mmHg 88%
    16:00 +6°C° 0 mm 1 mps 724 mmHg 91%
    17:00 +6°C° 0 mm 1 mps 724 mmHg 92%
    18:00 +6°C° 0 mm 1 mps 724 mmHg 92%
    19:00 +6°C° 0 mm 1 mps 724 mmHg 92%
    20:00 +6°C° 0.1 mm 1 mps 724 mmHg 92%
    21:00 +7°C° 0.1 mm 1 mps 724 mmHg 92%
    22:00 +6°C° 0.1 mm 2 mps 724 mmHg 93%
    23:00 +5°C° 0 mm 2 mps 724 mmHg 92%

    Day after tomorrow, 7 December, Saturday

    Time Temperature Precipitation Wind Pressure Humidity
    00:00 +5°C° 0 mm 2 mps 723 mmHg 92%
    01:00 +5°C° 0 mm 2 mps 723 mmHg 92%
    02:00 +5°C° 0 mm 2 mps 722 mmHg 92%
    03:00 +6°C° 0 mm 1 mps 722 mmHg 92%
    04:00 +7°C° 0 mm 1 mps 722 mmHg 92%
    05:00 +7°C° 0 mm 1 mps 722 mmHg 92%
    06:00 +7°C° 0 mm 1 mps 722 mmHg 91%
    07:00 +7°C° 0 mm 1 mps 722 mmHg 91%
    08:00 +8°C° 0 mm 1 mps 722 mmHg 90%
    09:00 +9°C° 0 mm 1 mps 722 mmHg 88%
    10:00 +10°C° 0 mm 1 mps 722 mmHg 86%
    11:00 +10°C° 0 mm 1 mps 722 mmHg 85%
    12:00 +11°C° 0 mm 1 mps 722 mmHg 84%
    13:00 +11°C° 0 mm 1 mps 722 mmHg 83%
    14:00 +11°C° 0.1 mm 1 mps 722 mmHg 85%
    15:00 +10°C° 0.1 mm 1 mps 721 mmHg 86%
    16:00 +8°C° 0.1 mm 0 mps 721 mmHg 87%
    17:00 +8°C° 0.1 mm 0 mps 722 mmHg 89%
    18:00 +7°C° 0.1 mm 0 mps 722 mmHg 90%
    19:00 +7°C° 0.1 mm 0 mps 722 mmHg 92%
    20:00 +7°C° 0.6 mm 0 mps 723 mmHg 94%
    21:00 +7°C° 0.6 mm 0 mps 723 mmHg 95%
    22:00 +7°C° 0.6 mm 0 mps 723 mmHg 97%
    23:00 +7°C° 0.2 mm 0 mps 723 mmHg 96%

    8 December, Sunday

    Time Temperature Precipitation Wind Pressure Humidity
    00:00 +6°C° 0.2 mm 0 mps 723 mmHg 96%
    01:00 +6°C° 0.2 mm 0 mps 723 mmHg 96%
    02:00 +6°C° 0 mm 0 mps 723 mmHg 95%
    03:00 +6°C° 0 mm 0 mps 723 mmHg 95%
    04:00 +6°C° 0 mm 0 mps 723 mmHg 94%
    05:00 +6°C° 0 mm 0 mps 723 mmHg 94%
    06:00 +6°C° 0 mm 1 mps 723 mmHg 94%
    07:00 +6°C° 0 mm 1 mps 723 mmHg 93%
    08:00 +7°C° 0 mm 1 mps 723 mmHg 90%
    09:00 +8°C° 0 mm 1 mps 723 mmHg 87%
    10:00 +9°C° 0 mm 1 mps 724 mmHg 84%
    11:00 +10°C° 0 mm 1 mps 723 mmHg 81%
    12:00 +11°C° 0 mm 1 mps 723 mmHg 78%
    13:00 +11°C° 0 mm 1 mps 722 mmHg 76%
    14:00 +10°C° 0 mm 1 mps 722 mmHg 80%
    15:00 +9°C° 0 mm 1 mps 722 mmHg 84%
    16:00 +8°C° 0 mm 1 mps 721 mmHg 88%
    17:00 +8°C° 0 mm 1 mps 721 mmHg 89%
    18:00 +7°C° 0 mm 1 mps 721 mmHg 89%
    19:00 +7°C° 0 mm 1 mps 721 mmHg 90%
    20:00 +7°C° 0 mm 1 mps 721 mmHg 90%
    21:00 +6°C° 0 mm 1 mps 721 mmHg 90%
    22:00 +5°C° 0 mm 2 mps 721 mmHg 91%
    23:00 +6°C° 0 mm 1 mps 720 mmHg 91%

    9 December, Monday

    Time Temperature Precipitation Wind Pressure Humidity
    00:00 +6°C° 0 mm 1 mps 720 mmHg 91%
    01:00 +5°C° 0 mm 1 mps 720 mmHg 91%
    02:00 +5°C° 0 mm 1 mps 719 mmHg 92%
    03:00 +5°C° 0 mm 1 mps 719 mmHg 92%
    04:00 +4°C° 0 mm 2 mps 718 mmHg 92%
    05:00 +4°C° 0 mm 2 mps 718 mmHg 91%
    06:00 +4°C° 0 mm 2 mps 718 mmHg 91%
    07:00 +5°C° 0 mm 2 mps 717 mmHg 90%
    08:00 +6°C° 0 mm 2 mps 717 mmHg 87%
    09:00 +7°C° 0 mm 2 mps 717 mmHg 84%
    10:00 +8°C° 0 mm 2 mps 717 mmHg 82%
    11:00 +9°C° 0 mm 2 mps 716 mmHg 80%
    12:00 +10°C° 0 mm 2 mps 716 mmHg 78%
    13:00 +12°C° 0 mm 2 mps 715 mmHg 77%
    14:00 +10°C° 0 mm 2 mps 715 mmHg 81%
    15:00 +9°C° 0 mm 2 mps 715 mmHg 85%
    16:00 +9°C° 0 mm 1 mps 714 mmHg 89%
    17:00 +8°C° 1.3 mm 2 mps 714 mmHg 91%
    18:00 +7°C° 1.3 mm 2 mps 714 mmHg 94%
    19:00 +6°C° 1.3 mm 2 mps 715 mmHg 96%
    20:00 +6°C° 1 mm 1 mps 715 mmHg 96%
    21:00 +6°C° 1 mm 1 mps 715 mmHg 95%
    22:00 +6°C° 1 mm 1 mps 715 mmHg 95%
    23:00 +5°C° 0 mm 1 mps 715 mmHg 94%

    10 December, Tuesday

    Time Temperature Precipitation Wind Pressure Humidity
    00:00 +5°C° 0 mm 1 mps 715 mmHg 93%
    01:00 +5°C° 0 mm 1 mps 715 mmHg 92%
    02:00 +5°C° 0 mm 1 mps 715 mmHg 91%
    03:00 +5°C° 0 mm 1 mps 715 mmHg 91%
    04:00 +5°C° 0 mm 1 mps 716 mmHg 90%
    05:00 +5°C° 0.1 mm 1 mps 716 mmHg 89%
    06:00 +5°C° 0.1 mm 1 mps 717 mmHg 88%
    07:00 +5°C° 0.1 mm 1 mps 718 mmHg 86%
    08:00 +5°C° 0.2 mm 1 mps 719 mmHg 85%
    09:00 +6°C° 0.2 mm 1 mps 720 mmHg 83%
    10:00 +7°C° 0.2 mm 1 mps 721 mmHg 81%
    11:00 +5°C° 0.4 mm 2 mps 721 mmHg 79%
    12:00 +4°C° 0.4 mm 3 mps 721 mmHg 77%
    13:00 +4°C° 0.4 mm 3 mps 721 mmHg 75%
    14:00 +4°C° 0.2 mm 3 mps 722 mmHg 79%
    15:00 +4°C° 0.2 mm 2 mps 722 mmHg 82%
    16:00 +4°C° 0.2 mm 1 mps 722 mmHg 86%
    17:00 +4°C° 0.2 mm 1 mps 723 mmHg 85%
    18:00 +3°C° 0.2 mm 1 mps 723 mmHg 84%
    19:00 +3°C° 0.2 mm 1 mps 724 mmHg 83%
    20:00 +2°C° 0.1 mm 1 mps 724 mmHg 84%
    21:00 +2°C° 0.1 mm 1 mps 725 mmHg 84%
    22:00 +2°C° 0.1 mm 1 mps 725 mmHg 84%
    23:00 +1°C° 0 mm 1 mps 725 mmHg 85%
    Show more